DEIMOS-1

Last updated on Fri Jul 10 2026 00:02:49 GMT+0000 (Coordinated Universal Time)

1 35681U 09041A 26190.29780664 .00000317 00000+0 53833-4 0 9993 2 35681 97.7431 346.5701 0002644 100.6271 259.5237 14.75260447910143
UTC large
Height (km)
Speed (km/s)
/
Latitude / Longitude
Inclination (degrees)
Orbital Period (minutes)
Azimuth
Elevation
Range (km)
Doppler Factor

Next 0 passes for location: London (51.5072 / 0.1276)

No passes found over London.
DEIMOS-1